Wind_Speed
24 23 24 24 22 23 24 23 23 24 26 27 27 24 23 22 20 19 18 16 16 14 12 11 10 9 8 7 7 7 9 10 10 11 12 13 14 15 16 16 17 18 19 19
26 24 22 22 21 23 24 25 26 28 30 28 28 26 24 22 22 21 19 18 17 16 14 13 12 10 10 9 7 7 8 9 11 11 11 12 13 15 15 16 17 18 18 19
24 23 24 23 22 23 26 28 29 29 31 31 29 27 25 23 23 22 21 20 19 18 17 16 14 12 12 11 10 10 9 9 9 11 12 12 13 14 14 16 16 17 18 18
24 25 25 22 23 25 28 28 29 30 30 30 29 27 27 26 24 23 22 21 21 20 18 17 16 15 14 13 12 12 12 12 13 12 12 13 13 13 14 15 16 17 17 18
25 25 24 23 24 25 26 28 28 30 28 28 27 27 26 24 23 23 23 22 21 20 19 18 16 15 15 15 14 14 14 14 15 15 15 15 16 16 16 17 18 20 21 22
24 24 24 25 24 23 24 26 27 28 28 27 27 27 25 24 23 23 22 22 22 21 20 19 18 17 18 17 17 17 16 16 16 17 17 17 17 18 19 20 21 22 23 24
24 25 25 26 24 23 24 26 24 25 25 24 25 25 24 24 23 23 22 23 23 22 22 21 20 20 20 20 19 19 18 18 18 18 18 18 19 20 21 22 23 24 25 26
24 25 26 25 24 24 24 23 22 23 23 23 24 23 24 23 22 22 22 22 23 23 23 22 22 22 22 22 22 21 20 20 21 20 21 21 22 22 24 25 26 27 28 29
25 25 25 24 24 24 23 23 23 22 23 23 23 23 23 23 23 22 22 22 23 23 23 23 23 23 22 22 22 22 22 22 23 23 23 24 24 25 27 28 28 29 30 31
23 23 23 24 24 24 24 24 23 23 23 23 23 23 23 23 23 23 23 23 23 23 24 24 24 24 23 23 22 23 23 23 24 25 26 26 26 27 28 29 31 32 32 33
22 22 23 23 23 23 22 22 22 22 21 22 23 23 23 22 22 23 23 23 23 24 24 23 23 22 22 23 23 24 23 23 23 25 26 28 29 29 30 31 32 33 35 35
21 21 21 21 21 21 20 20 20 20 20 21 22 21 21 20 20 21 21 22 22 22 22 22 22 22 22 22 23 23 23 24 25 26 27 28 29 30 31 32 33 34 35 36
20 20 19 18 18 18 17 18 18 18 19 20 20 19 20 20 20 20 20 21 20 20 21 21 22 22 23 23 24 24 24 25 25 26 26 27 29 29 30 32 33 33 34 36
19 18 17 17 17 17 17 17 17 18 19 19 19 19 18 19 19 19 19 18 19 19 19 19 19 20 21 21 21 22 23 24 24 25 26 27 28 29 30 31 32 33 35 36
17 16 16 16 16 16 15 16 16 16 17 17 17 17 17 17 17 17 16 16 17 18 19 20 20 19 20 20 21 22 23 24 25 26 27 28 29 30 31 33 35 36 37 38
16 15 15 15 15 15 15 15 14 14 14 14 15 16 15 14 13 13 14 14 16 17 18 18 18 19 19 20 21 22 23 24 25 25 27 28 30 32 34 36 37 38 40 41
15 15 14 13 13 13 12 13 12 12 11 11 10 11 11 11 11 12 12 13 13 14 14 14 15 15 17 18 19 20 21 23 24 26 28 30 31 33 35 36 38 39 40 41
13 12 11 11 10 10 10 9 8 8 8 8 8 9 10 11 10 10 11 11 12 12 13 14 15 17 18 19 20 21 23 25 26 28 30 31 33 34 36 37 39 39 40 41
12 12 12 11 11 11 10 9 9 8 8 8 8 9 9 11 11 11 11 12 13 14 14 15 16 17 18 20 22 23 25 27 29 30 32 33 35 36 37 38 39 40 40 41
14 13 12 11 10 11 11 10 9 9 9 9 9 9 10 11 12 13 13 14 14 15 16 17 18 20 21 23 25 26 28 29 31 32 34 35 36 37 37 38 38 39 39 39
14 13 12 11 11 10 10 10 9 9 10 11 11 12 12 12 13 13 14 15 16 18 19 20 22 23 25 26 27 28 30 31 32 33 34 35 36 37 37 37 37 37 37 37
14 14 12 12 11 11 11 11 11 11 12 12 13 13 13 13 14 15 16 18 19 20 22 23 24 25 27 28 29 30 31 32 33 34 35 36 36 36 36 36 36 35 35 35
15 14 13 13 13 13 13 13 13 13 13 14 14 14 15 16 17 18 19 21 22 23 24 25 26 28 29 29 30 31 32 33 34 34 35 35 35 34 34 34 34 33 33 32
14 14 13 13 14 13 13 13 14 15 15 16 17 17 18 19 20 20 22 23 24 25 26 26 27 29 30 31 31 32 33 33 34 34 34 33 33 32 32 31 31 31 31 30
14 14 13 13 14 13 14 15 15 16 17 18 19 20 20 20 21 22 22 23 24 25 26 27 28 29 30 31 31 32 32 33 33 33 32 31 31 30 30 29 29 29 28 28
16 16 15 15 15 15 15 16 16 17 19 19 20 21 21 21 21 22 23 24 25 26 27 28 28 29 30 30 31 31 31 31 31 30 29 28 28 28 27 27 26 26 25 25
15 15 15 15 15 15 16 16 17 19 19 20 20 21 21 22 23 24 25 26 27 27 28 29 29 30 30 30 30 30 29 29 28 27 26 25 25 25 24 24 24 23 23 23
Wind_Direction
229 236 239 238 239 236 236 239 243 249 253 255 259 263 267 266 263 268 264 262 264 263 263 267 269 265 261 266 264 253 247 240 236 237 232 230 233 235 239 244 244 245 244 244
232 237 246 243 244 245 245 248 249 251 254 254 253 257 262 262 263 264 263 262 261 261 260 262 264 263 259 258 259 257 254 249 243 240 238 238 241 243 246 249 248 247 248 251
237 238 243 245 247 248 248 247 251 252 253 256 256 256 260 261 261 261 261 260 260 260 260 259 261 259 259 256 256 257 259 255 246 242 243 246 249 247 248 248 249 250 251 251
239 242 248 250 249 249 250 252 254 254 254 253 254 255 257 258 259 258 256 256 258 259 259 256 257 257 259 258 259 259 258 258 254 255 253 252 252 252 252 252 253 257 259 261
242 246 250 250 252 253 254 255 254 254 255 254 254 255 255 258 257 256 254 255 256 257 259 257 253 254 255 257 259 262 264 263 262 259 260 259 259 260 259 260 262 264 264 265
246 250 250 250 251 253 255 257 253 252 253 255 252 253 254 254 254 252 252 252 253 255 258 256 255 256 257 259 260 262 265 267 267 263 262 263 262 262 265 266 267 268 269 270
248 251 253 255 255 257 257 258 258 255 251 251 251 253 254 254 252 250 249 250 253 256 258 258 257 257 260 262 262 265 267 267 268 269 269 270 270 271 271 270 271 272 273 275
247 249 251 256 258 256 259 260 260 256 252 250 250 250 251 251 251 251 251 251 253 256 257 258 259 258 259 261 263 266 267 268 269 270 272 273 273 275 277 275 275 276 276 276
250 251 252 254 256 256 258 258 258 257 254 252 249 247 248 249 249 250 250 253 256 257 256 258 260 260 260 261 263 265 266 268 271 273 275 276 276 275 277 277 277 278 278 277
249 251 253 255 257 258 258 255 254 254 253 250 249 246 247 248 249 250 251 253 255 257 257 261 262 260 260 263 264 266 266 268 271 274 275 276 277 278 278 278 278 279 280 280
247 251 255 257 259 258 255 253 252 252 250 249 247 248 247 248 249 250 250 250 252 257 260 261 261 260 262 263 265 266 267 270 274 277 279 276 279 278 278 280 282 282 284 286
249 252 256 256 258 256 251 250 250 249 248 249 250 251 249 249 249 249 251 251 251 255 257 259 261 262 263 265 267 268 269 272 277 281 281 282 285 285 285 286 287 286 288 289
251 253 254 255 256 252 248 246 246 247 246 248 247 249 247 247 249 250 249 249 250 254 257 259 261 262 265 267 268 269 272 275 279 282 284 286 287 287 287 289 290 291 292 292
250 251 251 254 252 249 247 245 246 247 245 244 246 248 248 246 247 248 249 249 251 254 258 261 263 265 267 268 270 273 278 280 283 286 287 289 289 290 291 292 294 296 296 297
246 247 247 247 245 244 246 246 244 244 244 241 241 242 242 240 241 242 244 249 253 257 259 261 263 266 267 269 272 275 279 282 285 287 289 291 292 294 296 298 298 299 299 299
243 243 241 241 242 243 244 243 240 239 239 238 238 237 237 238 240 240 246 251 254 258 260 262 265 268 270 273 278 281 283 286 289 292 295 296 296 298 298 299 300 300 300 300
235 236 237 237 237 236 233 228 227 229 229 229 229 230 232 237 243 250 256 258 262 267 270 271 274 277 281 284 288 290 291 293 295 296 297 298 299 300 301 302 302 302 301 302
229 230 233 233 233 225 217 214 219 223 226 229 237 244 249 253 256 262 266 268 271 275 277 281 283 285 287 289 292 294 296 297 298 300 301 302 302 303 303 304 304 303 303 303
227 232 231 231 229 224 219 222 228 232 232 232 238 245 254 257 259 263 267 270 273 276 280 284 286 288 290 293 295 296 298 299 300 301 302 303 304 305 305 305 305 304 304 304
229 230 229 231 232 228 228 230 233 235 236 240 246 255 265 265 265 269 276 280 283 285 287 289 291 292 294 295 297 299 300 301 302 303 304 305 306 306 306 306 305 305 305 305
223 224 225 227 230 232 233 234 239 244 249 255 259 264 268 271 273 276 281 284 286 288 290 292 293 295 296 298 299 301 301 302 303 304 304 305 305 306 306 306 306 306 306 306
222 224 227 233 238 239 238 241 245 249 254 258 263 268 271 273 277 281 285 287 289 291 293 294 296 297 298 300 300 301 302 302 303 304 304 304 305 305 305 305 305 305 306 306
225 227 230 234 239 242 244 247 248 253 259 263 269 273 276 278 282 285 287 289 291 293 294 297 298 299 299 300 301 301 302 303 303 304 304 304 304 304 304 304 304 305 306 306
226 228 232 237 242 247 250 251 254 260 265 268 272 276 279 282 283 285 288 291 293 295 297 298 299 300 300 301 301 302 302 303 303 304 304 304 304 304 304 305 305 305 305 306
226 231 238 241 244 248 251 254 260 267 269 271 275 278 280 282 284 288 291 294 296 298 299 300 301 301 302 302 302 302 302 303 303 304 304 304 303 303 303 304 304 305 306 307
228 234 240 247 252 255 258 262 267 271 274 276 279 281 282 285 289 292 294 296 298 299 300 302 303 303 303 303 303 303 303 303 303 304 304 303 303 303 304 305 306 308 308 308
231 237 246 252 255 259 262 266 271 274 276 280 282 284 286 288 290 292 294 296 297 298 299 301 302 302 302 302 303 303 303 304 304 304 304 304 305 305 306 306 307 308 310 310
Height
5794 5795 5796 5798 5800 5802 5804 5806 5807 5808 5808 5808 5807 5807 5808 5809 5810 5812 5813 5814 5814 5813 5814 5814 5814 5814 5815 5815 5815 5815 5816 5816 5817 5819 5820 5822 5824 5826 5827 5829 5830 5832 5833 5835
5789 5790 5791 5792 5794 5796 5798 5800 5801 5801 5801 5801 5802 5802 5803 5804 5806 5808 5809 5810 5810 5810 5810 5811 5812 5812 5813 5813 5813 5813 5814 5815 5816 5817 5818 5819 5821 5823 5824 5825 5827 5828 5829 5831
5782 5785 5785 5787 5790 5791 5792 5793 5793 5794 5795 5795 5796 5797 5798 5799 5801 5802 5804 5805 5806 5806 5806 5807 5808 5809 5810 5811 5811 5812 5813 5813 5814 5815 5816 5817 5818 5819 5820 5821 5823 5824 5825 5826
5776 5779 5779 5783 5782 5783 5785 5786 5786 5787 5788 5789 5790 5791 5792 5794 5796 5797 5799 5800 5802 5802 5803 5804 5805 5806 5807 5808 5809 5809 5810 5811 5811 5812 5813 5814 5815 5816 5816 5818 5819 5820 5820 5821
5770 5771 5773 5776 5776 5777 5777 5778 5779 5780 5781 5783 5785 5785 5785 5788 5791 5792 5794 5795 5797 5798 5800 5801 5802 5803 5804 5805 5806 5806 5807 5808 5808 5809 5810 5810 5811 5812 5812 5813 5814 5814 5815 5815
5764 5765 5767 5768 5768 5769 5771 5771 5771 5773 5775 5777 5779 5780 5781 5783 5785 5787 5789 5791 5792 5794 5795 5797 5798 5799 5800 5801 5802 5802 5803 5804 5804 5804 5805 5806 5806 5807 5808 5808 5808 5808 5809 5809
5757 5758 5760 5761 5762 5764 5766 5765 5766 5766 5768 5771 5772 5774 5776 5777 5780 5782 5784 5785 5787 5789 5790 5792 5793 5795 5795 5796 5797 5798 5799 5799 5799 5800 5800 5801 5801 5802 5802 5802 5802 5802 5802 5802
5751 5753 5755 5755 5756 5758 5759 5759 5760 5760 5763 5765 5766 5768 5770 5772 5774 5776 5778 5780 5782 5783 5785 5786 5788 5789 5790 5791 5792 5793 5794 5794 5794 5795 5795 5796 5796 5796 5796 5795 5795 5795 5794 5793
5746 5748 5748 5749 5750 5751 5752 5753 5754 5755 5757 5759 5761 5763 5765 5767 5769 5771 5773 5775 5776 5778 5779 5781 5782 5783 5784 5785 5786 5787 5788 5788 5788 5789 5789 5790 5790 5790 5789 5788 5788 5787 5785 5785
5739 5740 5742 5743 5744 5745 5747 5748 5749 5751 5752 5754 5756 5758 5760 5762 5764 5766 5768 5770 5771 5772 5774 5775 5776 5778 5779 5780 5780 5781 5782 5782 5782 5783 5782 5782 5782 5782 5781 5781 5780 5778 5776 5775
5734 5735 5736 5737 5738 5739 5741 5742 5744 5745 5747 5748 5750 5752 5754 5757 5758 5760 5762 5764 5766 5767 5768 5770 5771 5772 5773 5774 5775 5775 5775 5776 5776 5776 5775 5775 5775 5774 5773 5773 5771 5770 5768 5766
5729 5730 5732 5733 5733 5734 5735 5737 5739 5740 5742 5743 5745 5747 5749 5751 5753 5755 5757 5758 5760 5762 5763 5764 5765 5766 5767 5768 5769 5769 5770 5770 5770 5769 5769 5768 5768 5767 5765 5764 5762 5761 5759 5757
5724 5725 5727 5727 5728 5729 5731 5733 5734 5736 5738 5739 5741 5742 5744 5746 5748 5750 5751 5753 5755 5756 5758 5759 5760 5761 5762 5762 5763 5763 5764 5763 5763 5762 5762 5761 5760 5759 5758 5756 5754 5752 5749 5747
5719 5721 5722 5723 5724 5725 5727 5728 5730 5732 5733 5735 5736 5738 5739 5741 5743 5745 5747 5748 5750 5751 5753 5754 5755 5756 5756 5757 5757 5757 5757 5757 5756 5755 5754 5753 5752 5750 5749 5747 5745 5743 5741 5738
5715 5717 5718 5720 5721 5722 5723 5725 5726 5728 5729 5731 5733 5734 5735 5737 5739 5741 5742 5744 5745 5747 5748 5749 5750 5751 5751 5751 5751 5751 5751 5750 5749 5748 5747 5745 5744 5742 5740 5738 5735 5733 5730 5728
5712 5713 5715 5716 5717 5719 5720 5721 5723 5725 5726 5728 5729 5731 5732 5734 5735 5737 5739 5740 5742 5743 5743 5744 5744 5745 5745 5745 5745 5745 5744 5743 5742 5740 5739 5738 5736 5734 5731 5728 5725 5722 5719 5716
5709 5710 5712 5713 5715 5716 5717 5719 5720 5722 5724 5725 5727 5729 5730 5732 5733 5734 5736 5737 5738 5739 5739 5739 5740 5740 5740 5739 5739 5738 5737 5736 5735 5733 5732 5729 5727 5724 5721 5718 5715 5711 5707 5703
5706 5708 5709 5711 5713 5714 5715 5717 5718 5720 5721 5723 5725 5726 5728 5729 5730 5731 5732 5733 5734 5734 5735 5735 5735 5735 5734 5733 5733 5732 5731 5729 5728 5725 5723 5720 5717 5714 5711 5708 5704 5700 5696 5692
5703 5705 5707 5709 5711 5713 5714 5716 5717 5718 5720 5721 5723 5724 5725 5726 5727 5728 5729 5730 5730 5730 5730 5730 5730 5729 5728 5727 5726 5725 5723 5721 5719 5717 5714 5711 5708 5704 5701 5697 5693 5689 5685 5681
5701 5703 5705 5707 5709 5710 5712 5713 5715 5716 5718 5719 5721 5722 5723 5723 5724 5724 5725 5725 5725 5725 5725 5724 5724 5723 5722 5720 5719 5717 5715 5713 5710 5707 5704 5701 5697 5694 5690 5686 5682 5678 5674 5670
5699 5701 5703 5705 5706 5708 5710 5711 5713 5714 5716 5717 5718 5719 5719 5720 5720 5721 5721 5721 5720 5720 5719 5719 5717 5716 5714 5712 5710 5708 5706 5703 5701 5698 5695 5691 5688 5684 5680 5676 5672 5668 5663 5659
5696 5698 5700 5702 5704 5706 5708 5709 5710 5712 5713 5714 5714 5715 5715 5716 5716 5716 5716 5715 5715 5714 5713 5711 5710 5708 5706 5704 5702 5699 5697 5694 5691 5688 5685 5681 5678 5674 5670 5666 5662 5658 5654 5650
5694 5696 5698 5700 5702 5703 5704 5706 5707 5708 5709 5710 5711 5711 5711 5711 5711 5711 5710 5709 5708 5707 5705 5704 5702 5700 5698 5695 5693 5690 5687 5684 5681 5678 5675 5671 5668 5664 5660 5657 5653 5649 5645 5641
5691 5693 5695 5697 5698 5700 5701 5702 5703 5704 5705 5705 5706 5706 5706 5706 5705 5705 5704 5702 5701 5699 5698 5696 5693 5691 5689 5687 5684 5681 5678 5675 5672 5668 5665 5661 5658 5654 5651 5647 5644 5640 5637 5633
5689 5690 5692 5694 5695 5696 5697 5698 5699 5700 5700 5700 5700 5700 5700 5699 5698 5698 5696 5695 5694 5692 5690 5688 5685 5683 5680 5678 5675 5672 5669 5666 5662 5659 5655 5652 5649 5645 5642 5639 5635 5632 5629 5625
5686 5687 5689 5690 5691 5693 5693 5694 5695 5695 5695 5695 5694 5694 5693 5693 5692 5691 5689 5688 5686 5684 5682 5680 5677 5675 5672 5669 5666 5663 5660 5657 5653 5649 5646 5643 5640 5637 5634 5631 5628 5625 5622 5618
5682 5684 5685 5686 5687 5688 5689 5689 5690 5690 5689 5689 5688 5688 5687 5686 5685 5683 5682 5680 5679 5676 5674 5672 5669 5666 5663 5661 5657 5654 5651 5648 5645 5641 5638 5636 5633 5630 5627 5624 5621 5618 5615 5612